This is the latest recevied weather packets stored in our database for station/object SP5MRF-11. If no packets are shown the sender has not sent any weather packets the latest 10 day(s).
| Time | Temp. | Humidity | Pressure | Rain* | Wind** | Luminosity | Snow |
|---|---|---|---|---|---|---|---|
| 1788357262 | 22.78° C | 49% | 1019.3 hPa | - | - | - | - |
| 1788356362 | 22.78° C | 49% | 1019.2 hPa | - | - | - | - |
| 1788355462 | 23.33° C | 49% | 1019.4 hPa | - | - | - | - |
| 1788354596 | 23.89° C | 49% | 1019.5 hPa | - | - | - | - |
| 1788354562 | 23.89° C | 49% | 1019.5 hPa | - | - | - | - |
| 1788353662 | 23.89° C | 48% | 1019.5 hPa | - | - | - | - |
| 1788352762 | 24.44° C | 48% | 1019.4 hPa | - | - | - | - |
| 1788351861 | 25.56° C | 47% | 1019.5 hPa | - | - | - | - |
| 1788350961 | 25.56° C | 46% | 1019.6 hPa | - | - | - | - |
| 1788350061 | 26.67° C | 46% | 1019.7 hPa | - | - | - | - |
| 1788349161 | 31.67° C | 38% | 1019.6 hPa | - | - | - | - |
| 1788348261 | 32.78° C | 38% | 1019.7 hPa | - | - | - | - |
| 1788347361 | 31.67° C | 41% | 1019.9 hPa | - | - | - | - |
| 1788346460 | 32.78° C | 39% | 1020 hPa | - | - | - | - |
| 1788345560 | 28.89° C | 45% | 1020.1 hPa | - | - | - | - |
| 1788344660 | 27.22° C | 45% | 1020.1 hPa | - | - | - | - |
| 1788343760 | 26.11° C | 48% | 1020.2 hPa | - | - | - | - |
| 1788342860 | 27.22° C | 48% | 1020.2 hPa | - | - | - | - |
| 1788341960 | 32.78° C | 42% | 1020.2 hPa | - | - | - | - |
| 1788341059 | 30.56° C | 45% | 1020.2 hPa | - | - | - | - |
| 1788340689 | 31.11° C | 45% | 1020.1 hPa | - | - | - | - |
| 1788339789 | 33.33° C | 42% | 1020.2 hPa | - | - | - | - |
| 1788338888 | 30° C | 48% | 1020.2 hPa | - | - | - | - |
| 1788337988 | 35.56° C | 43% | 1020.2 hPa | - | - | - | - |
| 1788337087 | 35° C | 43% | 1020.1 hPa | - | - | - | - |
* Rain since midnight (hover to see other rain measurements)
** Current wind speed in m/s (hover to see current wind gust speed)